GW2905 Weather Reports


Display with metric or nautical units.
time (UTC)temp
F
wind
direction
speed
MPH
gust
MPH
rain 1hr
in
rain 24hr
in
rain mn
in
humidity
%
barometer
mb
20260831233104 83 0 0.0 0.0 0.00 0.00 0.00 38 1007.0
20260831231601 82 0 0.0 0.0 0.00 0.00 0.00 37 1007.0
20260831230108 83 0 0.0 0.0 0.00 0.00 0.00 37 1007.3
20260831224602 82 0 0.0 0.0 0.00 0.00 0.00 39 1007.4
20260831223103 82 0 0.0 0.0 0.00 0.00 0.00 39 1007.4
20260831221604 82 0 0.0 0.0 0.00 0.00 0.00 39 1007.5
20260831220113 83 0 0.0 0.0 0.00 0.00 0.00 39 1007.8
20260831214625 81 0 0.0 0.0 0.00 0.00 0.00 42 1007.8
20260831213102 80 0 0.0 0.0 0.00 0.00 0.00 42 1008.0
20260831211602 80 0 0.0 0.0 0.00 0.00 0.00 41 1008.0
20260831204603 79 0 0.0 0.0 0.00 0.00 0.00 42 1008.3
20260831203108 79 0 0.0 0.0 0.00 0.00 0.00 41 1008.6
20260831201602 78 0 0.0 0.0 0.00 0.00 0.00 41 1008.8
20260831200107 77 0 0.0 0.0 0.00 0.00 0.00 43 1008.9
20260831194555 77 0 0.0 0.0 0.00 0.00 0.00 43 1008.9
20260831193100 76 0 0.0 0.0 0.00 0.00 0.00 44 1009.3
20260831191601 76 0 0.0 0.0 0.00 0.00 0.00 47 1009.3
20260831190114 73 0 0.0 0.0 0.00 0.00 0.00 49 1009.5
20260831184604 73 0 0.0 0.0 0.00 0.00 0.00 52 1009.6
20260831183105 73 0 0.0 0.0 0.00 0.00 0.00 53 1009.7
20260831181600 70 0 0.0 0.0 0.00 0.00 0.00 58 1009.9
20260831180100 69 0 0.0 0.0 0.00 0.00 0.00 62 1010.0
20260831174610 67 0 0.0 0.0 0.00 0.00 0.00 62 1010.3
20260831173103 66 0 0.0 0.0 0.00 0.00 0.00 64 1010.2
20260831171600 64 0 0.0 0.0 0.00 0.00 0.00 70 1010.4
20260831170056 63 0 0.0 0.0 0.00 0.00 0.00 70 1010.6
20260831164609 62 0 0.0 0.0 0.00 0.00 0.00 74 1010.9
20260831163103 61 0 0.0 0.0 0.00 0.00 0.00 74 1010.9
20260831161558 60 0 0.0 0.0 0.00 0.00 0.00 76 1011.0
20260831160106 59 0 0.0 0.0 0.00 0.00 0.00 78 1011.1
20260831154624 58 0 0.0 0.0 0.00 0.00 0.00 80 1011.0
20260831153059 57 0 0.0 0.0 0.00 0.00 0.00 83 1010.9
20260831151605 56 0 0.0 0.0 0.00 0.00 0.00 83 1011.1
20260831144558 55 0 0.0 0.0 0.00 0.00 0.00 85 1011.2
20260831143109 55 0 0.0 0.0 0.00 0.00 0.00 85 1011.1
20260831141603 55 0 0.0 0.0 0.00 0.00 0.00 84 1011.2
20260831140101 54 0 0.0 0.0 0.00 0.00 0.00 85 1011.2
20260831134604 54 0 0.0 0.0 0.00 0.00 0.00 84 1011.2
20260831133102 54 0 0.0 0.0 0.00 0.00 0.00 84 1011.2
20260831131602 55 0 0.0 0.0 0.00 0.00 0.00 83 1011.3
20260831130113 55 0 0.0 0.0 0.00 0.00 0.00 82 1011.5
20260831124603 56 0 0.0 0.0 0.00 0.00 0.00 82 1011.5
20260831123111 56 0 0.0 0.0 0.00 0.00 0.00 81 1011.5
20260831121606 56 0 0.0 0.0 0.00 0.00 0.00 82 1011.7
20260831120105 56 0 0.0 0.0 0.00 0.00 0.00 81 1011.8
20260831114602 57 0 0.0 0.0 0.00 0.00 0.00 80 1011.8
20260831113137 57 0 0.0 0.0 0.00 0.00 0.00 80 1011.9
20260831111600 57 0 0.0 4.0 0.00 0.00 0.00 79 1011.8
20260831104605 57 0 0.0 0.0 0.00 0.00 0.00 78 1011.9
20260831103113 57 0 0.0 1.0 0.00 0.00 0.00 78 1012.0
20260831101602 58 0 0.0 0.0 0.00 0.00 0.00 78 1012.1
20260831100106 58 0 0.0 0.0 0.00 0.00 0.00 78 1012.5
20260831094606 58 0 0.0 0.0 0.00 0.00 0.00 79 1012.6
20260831093112 58 0 0.0 0.0 0.00 0.00 0.00 78 1012.8
20260831091600 58 0 0.0 0.0 0.00 0.00 0.00 78 1013.1
20260831090109 58 0 0.0 0.0 0.00 0.00 0.00 79 1013.1
20260831084602 58 0 0.0 0.0 0.00 0.00 0.00 78 1013.1
20260831083105 59 0 0.0 0.0 0.00 0.00 0.00 78 1013.2
20260831081609 59 0 0.0 0.0 0.00 0.00 0.00 78 1013.5
20260831080108 59 0 0.0 8.0 0.00 0.00 0.00 77 1013.3
20260831074602 60 0 0.0 0.0 0.00 0.00 0.00 76 1013.4
20260831073105 60 0 0.0 0.0 0.00 0.00 0.00 76 1013.5
20260831071603 60 0 0.0 6.0 0.00 0.00 0.00 75 1013.6
20260831070105 60 0 0.0 0.0 0.00 0.00 0.00 75 1013.7
20260831064557 61 0 0.0 0.0 0.00 0.00 0.00 74 1014.0
20260831063105 61 0 0.0 0.0 0.00 0.00 0.00 73 1014.2
20260831061608 61 0 0.0 0.0 0.00 0.00 0.00 72 1014.2
20260831060105 62 0 0.0 0.0 0.00 0.00 0.00 72 1014.4
20260831054611 62 0 0.0 0.0 0.00 0.00 0.00 71 1014.6
20260831053102 62 0 0.0 0.0 0.00 0.00 0.00 71 1014.7
20260831051611 62 0 0.0 0.0 0.00 0.00 0.00 70 1015.0
20260831050107 62 0 0.0 0.0 0.00 0.00 0.00 70 1015.0
20260831044612 62 0 0.0 1.0 0.00 0.00 0.00 69 1015.2
20260831043101 62 0 0.0 9.0 0.00 0.00 0.00 69 1015.3
20260831041606 62 82 0.0 3.0 0.00 0.00 0.00 68 1015.3
20260831040107 63 0 0.0 5.0 0.00 0.00 0.00 68 1015.4
20260831034601 62 30 1.0 3.0 0.00 0.00 0.00 69 1015.3
20260831033056 62 0 0.0 4.0 0.00 0.00 0.00 69 1015.3
20260831031558 62 178 0.0 2.0 0.00 0.00 0.00 69 1015.3
20260831024600 64 0 0.0 2.0 0.00 0.00 0.00 66 1015.5
20260831023059 64 41 1.0 3.0 0.00 0.00 0.00 64 1015.6
20260831021606 64 0 0.0 1.0 0.00 0.00 0.00 65 1015.7
20260831020100 65 0 0.0 4.0 0.00 0.00 0.00 62 1015.8
20260831014603 66 16 1.0 5.0 0.00 0.00 0.00 60 1015.8
20260831013111 66 14 0.0 6.0 0.00 0.00 0.00 60 1016.0
20260831011603 67 0 1.0 9.0 0.00 0.00 0.00 58 1016.1
20260831010106 67 314 1.0 6.0 0.00 0.00 0.00 57 1016.3
20260831004604 68 0 1.0 4.0 0.00 0.00 0.00 56 1016.4
20260831003106 68 336 1.0 8.0 0.00 0.00 0.00 55 1016.6
20260831001608 69 0 1.0 5.0 0.00 0.00 0.00 54 1016.6
20260831000106 69 352 1.0 6.0 0.00 0.00 0.00 53 1016.8
20260830234607 70 313 1.0 8.0 0.00 0.00 0.00 54 1016.8